BAW28F KLAX-EGLL

Flight info

Callsign BAW28F
Flight time N/A
Altitude 33000
Route OSHNN1 BEALE Q842 WINEN DCT MLF J107 DDY/N0484F350 J107 DPR DCT KP09A DCT HML DCT 55N090W 60N080W DCT TEFFO DCT BERUS/M084F370 DCT EMBOK DCT 63N050W 6230N04000W 61N030W 59N020W DCT AGORI/N0485F370 DCT OSBOX DCT MIMKU DCT KELLY L10 WAL UY53 NUGRA
Aircraft B77W/H-SDE1E2E3FGHIJ2J3J4J5M1RWXY/LB1D1

Departure

Time 2026-04-26 04:19
Airport Los Angeles International Airport (KLAX)

Arrival

Time N/A
Airport London Heathrow Airport (EGLL)
Time Latitude Longitude Altitude Speed Heading
2026-04-26 03:43 33.93940 -118.41075 139 ft 0 kts 83°
2026-04-26 04:03 33.93939 -118.41078 140 ft 2 kts 83°
2026-04-26 04:04 33.93937 -118.41098 140 ft 2 kts 83°
2026-04-26 04:04 33.93936 -118.41117 140 ft 2 kts 83°
2026-04-26 04:04 33.93934 -118.41136 140 ft 2 kts 83°
2026-04-26 04:04 33.93932 -118.41155 140 ft 2 kts 83°
2026-04-26 04:05 33.93935 -118.41174 140 ft 2 kts 144°
2026-04-26 04:05 33.93949 -118.41179 140 ft 0 kts 173°
2026-04-26 04:09 33.93948 -118.41179 140 ft 0 kts 173°
2026-04-26 04:09 33.93930 -118.41176 140 ft 5 kts 173°
2026-04-26 04:10 33.93897 -118.41172 140 ft 5 kts 173°
2026-04-26 04:10 33.93865 -118.41167 140 ft 4 kts 173°
2026-04-26 04:10 33.93835 -118.41162 140 ft 4 kts 173°
2026-04-26 04:10 33.93806 -118.41158 140 ft 4 kts 173°
2026-04-26 04:11 33.93780 -118.41148 140 ft 4 kts 148°
2026-04-26 04:11 33.93764 -118.41123 140 ft 4 kts 111°
2026-04-26 04:11 33.93764 -118.41092 140 ft 4 kts 83°
2026-04-26 04:11 33.93767 -118.41064 140 ft 3 kts 82°
2026-04-26 04:12 33.93772 -118.41026 140 ft 6 kts 82°
2026-04-26 04:12 33.93779 -118.40966 140 ft 9 kts 82°
2026-04-26 04:12 33.93788 -118.40882 140 ft 11 kts 82°
2026-04-26 04:12 33.93799 -118.40776 140 ft 14 kts 83°
2026-04-26 04:13 33.93811 -118.40647 140 ft 17 kts 82°
2026-04-26 04:13 33.93827 -118.40496 140 ft 19 kts 83°
2026-04-26 04:13 33.93845 -118.40325 140 ft 22 kts 82°
2026-04-26 04:13 33.93865 -118.40136 140 ft 24 kts 83°
2026-04-26 04:14 33.93884 -118.39941 140 ft 23 kts 83°
2026-04-26 04:14 33.93902 -118.39756 140 ft 22 kts 82°
2026-04-26 04:14 33.93921 -118.39579 140 ft 21 kts 83°
2026-04-26 04:14 33.93938 -118.39410 140 ft 20 kts 83°
2026-04-26 04:15 33.93954 -118.39248 140 ft 19 kts 83°
2026-04-26 04:15 33.93970 -118.39095 140 ft 18 kts 83°
2026-04-26 04:15 33.93986 -118.38949 140 ft 17 kts 83°
2026-04-26 04:15 33.94000 -118.38813 140 ft 16 kts 83°
2026-04-26 04:16 33.94014 -118.38681 140 ft 15 kts 83°
2026-04-26 04:16 33.94026 -118.38559 140 ft 14 kts 83°
2026-04-26 04:16 33.94038 -118.38445 140 ft 13 kts 83°
2026-04-26 04:16 33.94049 -118.38338 140 ft 13 kts 83°
2026-04-26 04:17 33.94060 -118.38235 140 ft 12 kts 83°
2026-04-26 04:17 33.94071 -118.38135 140 ft 12 kts 83°
2026-04-26 04:17 33.94062 -118.38049 140 ft 4 kts 116°
2026-04-26 04:17 33.94042 -118.38025 140 ft 4 kts 145°
2026-04-26 04:18 33.94017 -118.38012 140 ft 4 kts 168°
2026-04-26 04:18 33.93988 -118.38030 140 ft 9 kts 232°
2026-04-26 04:18 33.93970 -118.38148 140 ft 25 kts 263°
2026-04-26 04:18 33.93919 -118.38650 140 ft 97 kts 263°
2026-04-26 04:19 33.93808 -118.39739 140 ft 162 kts 263°
2026-04-26 04:19 33.93655 -118.41237 409 ft 187 kts 263°
2026-04-26 04:19 33.93508 -118.42780 1138 ft 186 kts 264°
2026-04-26 04:19 33.93364 -118.44359 1724 ft 196 kts 264°
2026-04-26 04:20 33.93216 -118.46013 2214 ft 201 kts 264°
2026-04-26 04:20 33.92990 -118.47603 2778 ft 205 kts 249°
2026-04-26 04:20 33.92084 -118.49004 3043 ft 224 kts 219°
2026-04-26 04:20 33.90675 -118.49952 3429 ft 239 kts 212°
2026-04-26 04:21 33.89319 -118.51213 3807 ft 254 kts 226°
2026-04-26 04:21 33.88163 -118.52835 4578 ft 255 kts 231°
2026-04-26 04:21 33.86959 -118.54415 5320 ft 259 kts 218°
2026-04-26 04:21 33.85297 -118.55253 6013 ft 264 kts 191°
2026-04-26 04:22 33.83476 -118.55231 6808 ft 266 kts 179°
2026-04-26 04:22 33.81593 -118.55063 7399 ft 274 kts 178°
2026-04-26 04:22 33.79786 -118.54767 8041 ft 278 kts 174°
2026-04-26 04:22 33.77779 -118.54296 8793 ft 281 kts 172°
2026-04-26 04:23 33.75869 -118.53767 9479 ft 283 kts 171°
2026-04-26 04:23 33.73939 -118.53229 10131 ft 286 kts 172°
2026-04-26 04:23 33.71998 -118.52628 10597 ft 300 kts 165°
2026-04-26 04:23 33.70148 -118.51250 10799 ft 330 kts 141°
2026-04-26 04:24 33.68702 -118.48989 11088 ft 355 kts 124°
2026-04-26 04:24 33.67668 -118.46187 11379 ft 377 kts 112°
2026-04-26 04:24 33.66919 -118.43105 11780 ft 391 kts 109°
2026-04-26 04:24 33.66130 -118.39932 12291 ft 400 kts 110°
2026-04-26 04:25 33.65413 -118.36656 12836 ft 410 kts 106°
2026-04-26 04:25 33.64693 -118.33314 13422 ft 416 kts 106°
2026-04-26 04:25 33.64240 -118.29851 14035 ft 426 kts 96°
2026-04-26 04:25 33.64272 -118.26273 14706 ft 432 kts 88°
2026-04-26 04:26 33.64604 -118.22675 15298 ft 438 kts 80°
2026-04-26 04:26 33.65623 -118.19187 15828 ft 445 kts 62°
2026-04-26 04:26 33.67421 -118.16179 16455 ft 446 kts 46°
2026-04-26 04:26 33.69663 -118.13590 17037 ft 448 kts 40°
2026-04-26 04:27 33.72031 -118.11129 17599 ft 453 kts 37°
2026-04-26 04:27 33.74529 -118.08815 18149 ft 456 kts 33°
2026-04-26 04:27 33.77115 -118.06571 18676 ft 461 kts 32°
2026-04-26 04:27 33.79736 -118.04281 19205 ft 467 kts 33°
2026-04-26 04:28 33.82361 -118.01934 19742 ft 471 kts 34°